Location: Newark
(27.9675°N, 86.8869°E)
Time: 03:31:01
(UTC+00:00)

Courier 1B Rocket - Pass Details

Date: 23 October 2019
Orbit: 920 x 1202 km, 28.2° (Epoch: 14 November)

Event Time Altitude Azimuth Distance (km) Brightness Sun altitude
Rises 17:44:41 0° 221° (SW) 3,785 - -73.3°
Reaches altitude 10° 17:47:53 10° 209° (SSW) 2,784 - -73.4°
Maximum altitude 17:53:22 27° 154° (SSE) 1,776 - -73.5°
Drops below altitude 10° 17:58:36 10° 99° (E) 2,653 - -73.5°
Sets 18:01:34 0° 87° (E) 3,573 - -73.5°
